Time,TemperatureF,DewpointF,PressureIn,WindDirection,WindDirectionDegrees,WindSpeedMPH,WindSpeedGustMPH,Humidity,HourlyPrecipIn,Conditions,Clouds,dailyrainin,SoftwareType,DateUTC
2013-04-09 00:04:00,59.8,54.0,29.89,South,178,0.0,0.0,82,0.00,,,0.00,weatherlink.com 1.10,2013-04-09 05:04:00,
2013-04-09 00:19:00,58.3,54.0,29.89,South,178,0.0,0.0,85,0.00,,,0.00,weatherlink.com 1.10,2013-04-09 05:19:00,
2013-04-09 00:34:00,57.9,54.0,29.89,South,178,0.0,0.0,86,0.00,,,0.00,weatherlink.com 1.10,2013-04-09 05:34:00,
2013-04-09 00:50:00,58.9,55.0,29.88,South,178,0.0,0.0,86,0.00,,,0.00,weatherlink.com 1.10,2013-04-09 05:50:00,
2013-04-09 01:05:00,60.2,55.0,29.88,South,178,0.0,0.0,83,0.00,,,0.00,weatherlink.com 1.10,2013-04-09 06:05:00,
2013-04-09 01:20:00,60.5,55.0,29.88,South,178,0.0,1.0,82,0.00,,,0.00,weatherlink.com 1.10,2013-04-09 06:20:00,
2013-04-09 01:35:00,60.8,55.0,29.88,South,178,0.0,1.0,82,0.00,,,0.00,weatherlink.com 1.10,2013-04-09 06:35:00,
2013-04-09 01:50:00,61.3,55.0,29.88,South,178,0.0,1.0,81,0.00,,,0.00,weatherlink.com 1.10,2013-04-09 06:50:00,
2013-04-09 02:05:00,60.9,55.0,29.88,South,178,1.0,3.0,82,0.00,,,0.00,weatherlink.com 1.10,2013-04-09 07:05:00,
2013-04-09 02:20:00,62.4,57.0,29.88,SSE,166,0.0,6.0,81,0.00,,,0.00,weatherlink.com 1.10,2013-04-09 07:20:00,
2013-04-09 02:35:00,63.4,57.0,29.88,SSE,165,0.0,6.0,80,0.00,,,0.00,weatherlink.com 1.10,2013-04-09 07:35:00,
2013-04-09 02:50:00,63.3,57.0,29.88,SE,140,1.0,6.0,81,0.00,,,0.00,weatherlink.com 1.10,2013-04-09 07:50:00,
2013-04-09 03:05:00,62.5,57.0,29.87,SE,140,1.0,2.0,82,0.00,,,0.00,weatherlink.com 1.10,2013-04-09 08:05:00,
2013-04-09 03:35:00,62.5,57.0,29.88,SSE,152,1.0,7.0,83,0.00,,,0.00,weatherlink.com 1.10,2013-04-09 08:35:00,
2013-04-09 03:50:00,62.3,57.0,29.88,SSE,152,3.0,5.0,83,0.00,,,0.00,weatherlink.com 1.10,2013-04-09 08:50:00,
2013-04-09 04:05:00,62.2,57.0,29.89,SE,142,2.0,3.0,84,0.00,,,0.00,weatherlink.com 1.10,2013-04-09 09:05:00,
2013-04-09 04:20:00,62.2,57.0,29.88,SE,144,0.0,5.0,84,0.00,,,0.00,weatherlink.com 1.10,2013-04-09 09:20:00,
2013-04-09 04:35:00,62.6,58.0,29.88,SSE,165,5.0,7.0,84,0.00,,,0.00,weatherlink.com 1.10,2013-04-09 09:35:00,
2013-04-09 04:50:00,62.6,58.0,29.89,SE,142,1.0,6.0,84,0.00,,,0.00,weatherlink.com 1.10,2013-04-09 09:50:00,
2013-04-09 05:05:00,63.1,59.0,29.90,SSE,162,2.0,9.0,85,0.00,,,0.00,weatherlink.com 1.10,2013-04-09 10:05:00,
2013-04-09 05:35:00,62.9,59.0,29.92,SSE,166,2.0,4.0,86,0.00,,,0.00,weatherlink.com 1.10,2013-04-09 10:35:00,
2013-04-09 05:50:00,62.8,59.0,29.92,SSE,166,2.0,2.0,87,0.00,,,0.00,weatherlink.com 1.10,2013-04-09 10:50:00,
2013-04-09 06:05:00,62.6,59.0,29.93,SSE,166,0.0,2.0,88,0.00,,,0.00,weatherlink.com 1.10,2013-04-09 11:05:00,
2013-04-09 06:20:00,62.6,59.0,29.94,SSE,166,0.0,2.0,89,0.00,,,0.00,weatherlink.com 1.10,2013-04-09 11:20:00,
2013-04-09 06:35:00,62.3,59.0,29.94,SSE,166,1.0,3.0,89,0.00,,,0.00,weatherlink.com 1.10,2013-04-09 11:35:00,
2013-04-09 06:50:00,63.1,60.0,29.94,SE,135,3.0,6.0,88,0.00,,,0.00,weatherlink.com 1.10,2013-04-09 11:50:00,
2013-04-09 07:05:00,63.6,60.0,29.94,SE,140,4.0,5.0,87,0.00,,,0.00,weatherlink.com 1.10,2013-04-09 12:05:00,
2013-04-09 07:20:00,64.1,60.0,29.95,SSE,167,2.0,6.0,86,0.00,,,0.00,weatherlink.com 1.10,2013-04-09 12:20:00,
2013-04-09 07:35:00,64.5,60.0,29.95,SE,140,3.0,5.0,86,0.00,,,0.00,weatherlink.com 1.10,2013-04-09 12:35:00,
2013-04-09 07:50:00,64.9,61.0,29.95,SSE,168,5.0,6.0,86,0.00,,,0.00,weatherlink.com 1.10,2013-04-09 12:50:00,
2013-04-09 08:05:00,65.5,61.0,29.96,SSE,157,1.0,7.0,85,0.00,,,0.00,weatherlink.com 1.10,2013-04-09 13:05:00,
2013-04-09 08:20:00,66.0,61.0,29.97,SSW,195,6.0,8.0,85,0.00,,,0.00,weatherlink.com 1.10,2013-04-09 13:20:00,
2013-04-09 08:35:00,66.2,62.0,29.97,SSE,156,8.0,9.0,85,0.00,,,0.00,weatherlink.com 1.10,2013-04-09 13:35:00,
2013-04-09 08:51:00,66.5,62.0,29.97,South,172,1.0,8.0,85,0.00,,,0.00,weatherlink.com 1.10,2013-04-09 13:51:00,
2013-04-09 09:06:00,66.8,62.0,29.98,SSE,161,4.0,8.0,85,0.00,,,0.00,weatherlink.com 1.10,2013-04-09 14:06:00,
2013-04-09 09:36:00,68.0,63.0,29.98,SW,214,8.0,10.0,83,0.00,,,0.00,weatherlink.com 1.10,2013-04-09 14:36:00,
2013-04-09 10:36:00,72.8,64.0,29.97,South,187,6.0,10.0,75,0.00,,,0.00,weatherlink.com 1.10,2013-04-09 15:36:00,
2013-04-09 10:51:00,74.4,64.0,29.97,SSE,152,6.0,12.0,71,0.00,,,0.00,weatherlink.com 1.10,2013-04-09 15:51:00,
2013-04-09 11:06:00,74.8,64.0,29.97,SW,224,11.0,14.0,70,0.00,,,0.00,weatherlink.com 1.10,2013-04-09 16:06:00,
2013-04-09 11:21:00,75.0,65.0,29.98,South,172,6.0,13.0,70,0.00,,,0.00,weatherlink.com 1.10,2013-04-09 16:21:00,
2013-04-09 11:36:00,73.6,64.0,29.97,South,171,1.0,18.0,73,0.00,,,0.00,weatherlink.com 1.10,2013-04-09 16:36:00,
2013-04-09 11:51:00,73.3,64.0,29.97,SSW,195,4.0,10.0,73,0.00,,,0.00,weatherlink.com 1.10,2013-04-09 16:51:00,
2013-04-09 12:06:00,75.0,66.0,29.96,South,173,4.0,12.0,73,0.00,,,0.00,weatherlink.com 1.10,2013-04-09 17:06:00,
2013-04-09 12:21:00,74.0,64.0,29.96,South,186,6.0,16.0,72,0.00,,,0.00,weatherlink.com 1.10,2013-04-09 17:21:00,
2013-04-09 12:51:00,75.3,66.0,29.95,SW,214,8.0,18.0,72,0.00,,,0.00,weatherlink.com 1.10,2013-04-09 17:51:00,
2013-04-09 13:06:00,75.4,66.0,29.95,SSE,151,4.0,11.0,72,0.00,,,0.00,weatherlink.com 1.10,2013-04-09 18:06:00,
2013-04-09 13:21:00,74.1,65.0,29.95,SSE,165,3.0,12.0,73,0.00,,,0.00,weatherlink.com 1.10,2013-04-09 18:21:00,
2013-04-09 13:51:00,73.5,66.0,29.94,South,180,6.0,15.0,76,0.00,,,0.00,weatherlink.com 1.10,2013-04-09 18:51:00,
2013-04-09 14:06:00,74.6,66.0,29.93,SSW,193,4.0,12.0,74,0.00,,,0.00,weatherlink.com 1.10,2013-04-09 19:06:00,
2013-04-09 14:36:00,75.0,65.0,29.92,South,186,6.0,13.0,72,0.00,,,0.00,weatherlink.com 1.10,2013-04-09 19:36:00,
2013-04-09 14:51:00,76.0,66.0,29.92,SSW,196,7.0,13.0,70,0.00,,,0.00,weatherlink.com 1.10,2013-04-09 19:51:00,
2013-04-09 15:06:00,76.0,66.0,29.91,South,173,13.0,14.0,70,0.00,,,0.00,weatherlink.com 1.10,2013-04-09 20:06:00,
2013-04-09 15:21:00,76.3,66.0,29.91,SSE,167,5.0,14.0,70,0.00,,,0.00,weatherlink.com 1.10,2013-04-09 20:21:00,
2013-04-09 15:36:00,75.2,65.0,29.90,SSW,207,7.0,12.0,71,0.00,,,0.00,weatherlink.com 1.10,2013-04-09 20:36:00,
2013-04-09 15:51:00,75.8,65.0,29.89,SW,214,6.0,12.0,70,0.00,,,0.00,weatherlink.com 1.10,2013-04-09 20:51:00,
2013-04-09 16:06:00,77.1,67.0,29.89,SSE,163,2.0,11.0,70,0.00,,,0.00,weatherlink.com 1.10,2013-04-09 21:06:00,
2013-04-09 16:21:00,76.2,65.0,29.88,SSW,198,6.0,11.0,69,0.00,,,0.00,weatherlink.com 1.10,2013-04-09 21:21:00,
2013-04-09 16:36:00,75.6,66.0,29.88,SE,139,7.0,12.0,72,0.00,,,0.00,weatherlink.com 1.10,2013-04-09 21:36:00,
2013-04-09 16:51:00,76.4,66.0,29.88,SSE,163,3.0,9.0,70,0.00,,,0.00,weatherlink.com 1.10,2013-04-09 21:51:00,
2013-04-09 17:06:00,76.4,66.0,29.88,SSW,201,6.0,11.0,70,0.00,,,0.00,weatherlink.com 1.10,2013-04-09 22:06:00,
2013-04-09 17:21:00,76.7,66.0,29.88,SSW,202,7.0,12.0,69,0.00,,,0.00,weatherlink.com 1.10,2013-04-09 22:21:00,
2013-04-09 17:36:00,77.1,66.0,29.87,ESE,122,5.0,11.0,68,0.00,,,0.00,weatherlink.com 1.10,2013-04-09 22:36:00,
2013-04-09 17:51:00,76.0,66.0,29.87,SSE,147,7.0,15.0,70,0.00,,,0.00,weatherlink.com 1.10,2013-04-09 22:51:00,
2013-04-09 18:07:00,76.2,66.0,29.87,SE,145,2.0,14.0,70,0.00,,,0.00,weatherlink.com 1.10,2013-04-09 23:07:00,
2013-04-09 18:22:00,75.4,66.0,29.87,South,185,8.0,9.0,72,0.00,,,0.00,weatherlink.com 1.10,2013-04-09 23:22:00,
2013-04-09 18:36:00,75.4,66.0,29.87,South,185,0.0,9.0,72,0.00,,,0.00,weatherlink.com 1.10,2013-04-09 23:36:00,
2013-04-09 18:51:00,75.4,66.0,29.87,SSE,163,2.0,11.0,72,0.00,,,0.00,weatherlink.com 1.10,2013-04-09 23:51:00,
2013-04-09 19:07:00,75.1,66.0,29.88,SE,140,2.0,8.0,72,0.00,,,0.00,weatherlink.com 1.10,2013-04-10 00:07:00,
2013-04-09 19:22:00,74.0,65.0,29.88,SSE,153,0.0,5.0,74,0.00,,,0.00,weatherlink.com 1.10,2013-04-10 00:22:00,
2013-04-09 19:37:00,73.7,65.0,29.88,South,169,0.0,4.0,74,0.00,,,0.00,weatherlink.com 1.10,2013-04-10 00:37:00,
2013-04-09 19:52:00,72.7,65.0,29.89,SSE,155,0.0,1.0,76,0.00,,,0.00,weatherlink.com 1.10,2013-04-10 00:52:00,
2013-04-09 20:07:00,72.5,65.0,29.88,SE,146,2.0,5.0,76,0.00,,,0.00,weatherlink.com 1.10,2013-04-10 01:07:00,
2013-04-09 20:22:00,72.4,65.0,29.88,SSE,157,0.0,4.0,77,0.00,,,0.00,weatherlink.com 1.10,2013-04-10 01:22:00,
2013-04-09 20:37:00,72.1,65.0,29.88,SSE,162,0.0,6.0,77,0.00,,,0.00,weatherlink.com 1.10,2013-04-10 01:37:00,
2013-04-09 20:52:00,71.9,65.0,29.88,SSE,148,2.0,6.0,78,0.00,,,0.00,weatherlink.com 1.10,2013-04-10 01:52:00,
2013-04-09 21:22:00,71.8,65.0,29.89,SSW,196,1.0,7.0,78,0.00,,,0.00,weatherlink.com 1.10,2013-04-10 02:22:00,
2013-04-09 21:37:00,71.5,64.0,29.90,SSE,153,2.0,6.0,78,0.00,,,0.00,weatherlink.com 1.10,2013-04-10 02:37:00,
2013-04-09 21:52:00,71.4,65.0,29.90,South,170,1.0,6.0,79,0.00,,,0.00,weatherlink.com 1.10,2013-04-10 02:52:00,
2013-04-09 22:07:00,71.0,64.0,29.90,SE,146,5.0,6.0,79,0.00,,,0.00,weatherlink.com 1.10,2013-04-10 03:07:00,
2013-04-09 22:22:00,71.2,64.0,29.90,SSW,192,4.0,5.0,79,0.00,,,0.00,weatherlink.com 1.10,2013-04-10 03:22:00,
2013-04-09 22:37:00,71.9,65.0,29.89,SE,131,4.0,10.0,79,0.00,,,0.00,weatherlink.com 1.10,2013-04-10 03:37:00,
2013-04-09 22:52:00,72.3,65.0,29.88,South,176,6.0,11.0,78,0.00,,,0.00,weatherlink.com 1.10,2013-04-10 03:52:00,
2013-04-09 23:07:00,72.3,65.0,29.88,SSW,192,1.0,10.0,78,0.00,,,0.00,weatherlink.com 1.10,2013-04-10 04:07:00,
2013-04-09 23:22:00,72.2,65.0,29.86,South,190,5.0,8.0,78,0.00,,,0.00,weatherlink.com 1.10,2013-04-10 04:22:00,
2013-04-09 23:37:00,72.1,65.0,29.86,SE,143,2.0,11.0,78,0.00,,,0.00,weatherlink.com 1.10,2013-04-10 04:37:00,
2013-04-09 23:52:00,72.3,65.0,29.85,South,169,7.0,12.0,77,0.00,,,0.00,weatherlink.com 1.10,2013-04-10 04:52:00,